User: anonymous   Login
Location: Newark
(52.3735°N, 16.9806°E)
Time: 15:44:19
(UTC+00:00)
Language:

TIGRISAT - Orbit

View from above orbital plane
View from above orbital plane
View from above satellite
View from above satellite

Ground track
Ground track

The orbit data is extracted from the following two-line orbital elements,

1 40043U 14033AK  22336.98841303  .00000957  00000-0  14450-3 0  9992
2 40043  97.6542 157.2196 0058156 331.5085  28.2949 14.75400501454775
Epoch (UTC): 02 December 2022 23:43:18
Eccentricity: 0.0058156
inclination: 97.6542°
perigee height: 603 km
apogee height: 685 km
right ascension of ascending node: 157.2196°
argument of perigee: 331.5085°
revolutions per day: 14.75400501
mean anomaly at epoch: 28.2949°
orbit number at epoch: 45477

The dashed part of the orbit path shows where the satellite is in the earth's shadow,  

DLR